This demonstration page uses our WeatherBlox Daily Observations layout. Learn more.

39.01783, -85.05884

Hourly Observations for January 22, 2019

Temp ( °F °C ) Dew Point ( °F °C ) Humidity (%) Winds ( mph kmh ) Pressure ( in mb ) Visibility ( mi km ) Precip ( " mm )
12:52 am 00:52 Cloudy 15 -9.4 3 -16.1 59 59 E 9 15 30.48 1032 10 16.09344 0 0
1:52 am 01:52 Mostly Cloudy 15 -9.4 4 -15.6 61 61 E 10 17 30.48 1032 10 16.09344 0 0
2:52 am 02:52 Mostly Cloudy 15 -9.4 3 -16.1 59 59 ESE 10 17 30.45 1031 10 16.09344 0 0
3:52 am 03:52 Cloudy 16 -8.9 3 -16.1 56 56 ESE 10 17 30.45 1031 10 16.09344 0 0
4:52 am 04:52 Partly Cloudy 15 -9.4 3 -16.1 59 59 ESE 8 13 30.45 1031 10 16.09344 0 0
5:52 am 05:52 Mostly Cloudy 15 -9.4 4 -15.6 61 61 E 10 17 30.42 1030 10 16.09344 0 0
6:52 am 06:52 Cloudy 15 -9.4 4 -15.6 61 61 SE 10 17 30.45 1031 10 16.09344 0 0
7:52 am 07:52 Partly Cloudy 16 -8.9 4 -15.6 59 59 SSE 12 19 30.45 1031 10 16.09344 0 0
8:52 am 08:52 Partly Cloudy 17 -8.3 5 -15 59 59 SE 13 20 30.42 1030 10 16.09344 0 0
9:52 am 09:52 Mostly Cloudy 20 -6.7 7 -13.9 57 57 SSE 10 17 30.42 1030 10 16.09344 0 0
10:52 am 10:52 Mostly Cloudy 25 -3.9 10 -12.2 53 53 SSE 12 19 30.39 1029 10 16.09344 0 0
11:52 am 11:52 Mostly Cloudy 29 -1.7 13 -10.6 51 51 SSE 10 17 30.39 1029 10 16.09344 0 0
12:52 pm 12:52 Mostly Cloudy 34 1.1 16 -8.9 48 48 S 10 17 30.33 1027 10 16.09344 0 0
1:52 pm 13:52 Mostly Cloudy 38 3.3 18 -7.8 44 44 S 13 20 30.3 1026 10 16.09344 0 0
2:52 pm 14:52 Cloudy 38 3.3 21 -6.1 51 51 S 13 20 30.27 1025 10 16.09344 0 0
3:52 pm 15:52 Cloudy 39 3.9 22 -5.6 50 50 SSE 15 24 30.21 1023 10 16.09344 0 0
4:52 pm 16:52 Cloudy 39 3.9 22 -5.6 50 50 SSE 14 22 30.21 1023 10 16.09344 0 0
5:52 pm 17:52 Cloudy 39 3.9 23 -5 53 53 SSE 15 24 30.18 1022 10 16.09344 0 0
6:52 pm 18:52 Cloudy 40 4.4 24 -4.4 53 53 S 17 28 30.18 1022 10 16.09344 0 0
7:52 pm 19:52 Cloudy 42 5.6 23 -5 47 47 S 16 26 30.15 1021 10 16.09344 0 0
8:52 pm 20:52 Cloudy 43 6.1 27 -2.8 53 53 S 20 31 30.15 1021 10 16.09344 0 0
9:52 pm 21:52 Cloudy 42 5.6 30 -1.1 62 62 S 20 31 30.09 1019 10 16.09344 0 0
10:52 pm 22:52 Cloudy 43 6.1 30 -1.1 60 60 S 17 28 30.06 1018 10 16.09344 0 0
11:52 pm 23:52 Cloudy 43 6.1 30 -1.1 60 60 S 17 28 30.03 1017 10 16.09344 0 0

Powered by AerisWeather